Glendale Luke AFB, AZ

12:29 AM MST on October 19, 2017 (GMT -0700)
Luke Air Force Base

Weather History for KLUF - March, 2014

Change the Weather History Date:

Wednesday, March 12, 2014

  Actual Average Record
Temperature  
Mean Temperature 64 °F -  
Max Temperature 79 °F 76 °F 94 °F (1972)
Min Temperature 48 °F 44 °F 30 °F (1927)
Degree Days  
Heating Degree Days 2    
Growing Degree Days 14 (Base 50)    
Moisture  
Dew Point 29 °F    
Average Humidity 28    
Maximum Humidity 48    
Minimum Humidity 14    
Precipitation  
Precipitation 0.00 in - - ()
Sea Level Pressure  
Sea Level Pressure 29.95 in    
Wind  
Wind Speed 4 mph (NW)    
Max Wind Speed 8 mph    
Max Gust Speed -    
Visibility 10 miles    
Events      
Averages and records for this station are not official NWS values.
T = Trace of Precipitation, MM = Missing Value Source: NWS Daily Summary

Daily Weather History Graph

Daily Weather History Graph

Search for Another Location

Airport or City:

Trip Planner

Search our weather history database for the weather conditions in past years. The results will help you decide how hot, cold, wet, or windy it might be!

Date:

Astronomy

Mar. 12, 2014 Rise Set
Actual Time 6:43 AM MST 6:35 PM MST
Civil Twilight 6:18 AM MST 6:59 PM MST
Nautical Twilight 5:50 AM MST 7:28 PM MST
Astronomical Twilight 5:21 AM MST 7:57 PM MST
Moon 3:17 PM MST (3/12) 4:09 AM MST (3/12)
Length of Visible Light 12h 40m
Length of Day
11h 51m
Waxing Gibbous, 86% of the Moon is Illuminated
Mar 12
Waxing Gibbous
Mar 16
Full
Mar 23
Last Quarter
Mar 30
New
Apr 7
First Quarter

Hourly Weather History & Observations

Time (MST) Temp. Dew Point Humidity Pressure Visibility Wind Dir Wind Speed Gust Speed Precip Events Conditions
12:58 AM 57.9 °F 22.6 °F 26% 29.92 in 10.0 mi West 2.3 mph - N/A   Clear
1:58 AM 56.7 °F 23.7 °F 28% 29.93 in 10.0 mi West 5.8 mph - N/A   Clear
2:58 AM 54.0 °F 25.9 °F 34% 29.93 in 10.0 mi NNW 5.8 mph - N/A   Clear
3:58 AM 51.6 °F 27.9 °F 40% 29.93 in 10.0 mi NNW 4.6 mph - N/A   Clear
4:58 AM 51.4 °F 28.0 °F 40% 29.94 in 10.0 mi NW 4.6 mph - N/A   Clear
5:58 AM 49.1 °F 29.8 °F 47% 29.98 in 10.0 mi North 4.6 mph - N/A   Clear
6:58 AM 48.2 °F 29.3 °F 48% 30.00 in 10.0 mi NNW 8.1 mph - N/A   Clear
7:58 AM 53.4 °F 28.8 °F 39% 30.01 in 10.0 mi North 4.6 mph - N/A   Clear
8:58 AM 59.9 °F 27.0 °F 29% 30.03 in 10.0 mi Calm Calm - N/A   Partly Cloudy
9:58 AM 68.0 °F 24.8 °F 20% 30.02 in 10.0 mi Calm Calm - N/A   Partly Cloudy
10:58 AM 69.6 °F 23.7 °F 18% 30.02 in 10.0 mi Variable 4.6 mph - N/A   Clear
11:58 AM 73.0 °F 25.3 °F 17% 30.01 in 10.0 mi Variable 1.2 mph - N/A   Clear
12:58 PM 75.2 °F 26.8 °F 17% 29.98 in 10.0 mi Variable 3.5 mph - N/A   Clear
1:58 PM 77.7 °F 25.0 °F 14% 29.95 in 10.0 mi Variable 5.8 mph - N/A   Clear
2:58 PM 79.2 °F 26.4 °F 14% 29.93 in 10.0 mi ESE 5.8 mph - N/A   Clear
3:58 PM 79.9 °F 27.1 °F 14% 29.91 in 10.0 mi East 4.6 mph - N/A   Clear
4:58 PM 79.5 °F 26.8 °F 14% 29.90 in 10.0 mi West 5.8 mph - N/A   Clear
5:58 PM 78.6 °F 27.9 °F 16% 29.89 in 10.0 mi West 5.8 mph - N/A   Scattered Clouds
6:58 PM 75.0 °F 33.8 °F 22% 29.90 in 10.0 mi WNW 3.5 mph - N/A   Mostly Cloudy
7:58 PM 71.4 °F 35.2 °F 27% 29.91 in 10.0 mi NW 4.6 mph - N/A   Mostly Cloudy
8:58 PM 68.4 °F 37.0 °F 32% 29.92 in 10.0 mi Calm Calm - N/A   Scattered Clouds
9:58 PM 66.0 °F 37.8 °F 35% 29.93 in 10.0 mi Calm Calm - N/A   Clear
10:58 PM 63.9 °F 38.8 °F 40% 29.91 in 10.0 mi NE 5.8 mph - N/A   Clear
11:58 PM 61.0 °F 38.1 °F 43% 29.92 in 10.0 mi Calm Calm - N/A   Clear